Regional Weather Roundup
Issued by NWS

Home | Current Version | Previous Version | Graphics & Text | Print | Product List | Glossary On
Versions: 1 2 3 4 5 6 7 8 9 10 11 12 13 14 15 16 17 18 19 20 21 22 23 24 25 26 27 28 29 30 31 32 33 34 35 36 37 38 39 40 41 42 43 44 45 46 47 48 49 50
710
ASUS43 KMKX 240421
RWRWI

WISCONSIN REGIONAL WEATHER ROUNDUP
NATIONAL WEATHER SERVICE MILWAUKEE/SULLIVAN WI
1100 PM CDT MON MAY 23 2016

NOTE: "FAIR" INDICATES FEW OR NO CLOUDS BELOW 12,000 FEET WITH NO
SIGNIFICANT WEATHER AND/OR OBSTRUCTIONS TO VISIBILITY.

WIZ001-002-006>008-014>016-023>028-240500-
NORTHWEST WISCONSIN

CITY           SKY/WX    TMP DP  RH WIND       PRES   REMARKS
SUPERIOR ARPT  LGT RAIN  63  62  97 S8        29.79R
ASHLAND        CLOUDY    63  63 100 CALM      29.78S
HAYWARD        CLOUDY    65  61  87 S9        29.82R
SIREN          RAIN      63  61  93 W7G16     29.83R
CUMBERLAND     CLOUDY    63  55  77 W9        29.85R
RICE LAKE      CLOUDY    69  56  64 SW10      29.86R
CHETEK         CLOUDY    64  64  99 CALM      29.84S
LADYSMITH      PTCLDY    65  61  86 CALM      29.86R
EAU CLAIRE     CLOUDY    65  62  90 CALM      29.84R
MENOMONIE      CLOUDY    67  62  84 CALM      29.85R
NEW RICHMOND   CLOUDY    65  58  77 CALM      29.84S
OSCEOLA        CLOUDY    64  64 100 W3        29.85F
$$

WIZ003>005-009-010-017-018-240500-
NORTH CENTRAL WISCONSIN

CITY           SKY/WX    TMP DP  RH WIND       PRES   REMARKS
MANITOWISH WTR CLOUDY    62  62 100 CALM      29.84S
ARBOR VITAE    MOCLDY    68  60  75 N3        29.86R
WOODRUFF       MOCLDY    68  60  75 N3        29.86R
RHINELANDER    PTCLDY    70  45  40 S5        29.86R
EAGLE RIVER      N/A     69  42  37 CALM      29.85R
LAND O LAKES   MOCLDY    69  56  62 N8        29.86S
PHILLIPS       CLOUDY    64  61  88 CALM      29.85R
TOMAHAWK       MOCLDY    64  48  57 CALM      29.86R
MEDFORD        CLOUDY    67  51  55 SW3       29.86S
MERRILL        PTCLDY    67  48  49 SW5       29.86R
$$

WIZ029-030-035-036-043>047-240500-
CENTRAL WISCONSIN

CITY           SKY/WX    TMP DP  RH WIND       PRES   REMARKS
WAUSAU         PTCLDY    69  47  45 CALM      29.84R
MOSINEE        PTCLDY    63  45  51 S6        29.87R
MARSHFIELD     CLOUDY    67  50  54 W6        29.86R
STEVENS POINT  PTCLDY    67  45  45 S6        29.86R
WAUPACA        CLEAR     64  50  59 CALM      29.87R
WAUTOMA        PTCLDY    66  50  56 SE5       29.87R
WISC RAPIDS    CLOUDY    70  44  39 SW6       29.87R
CAMP DOUGLAS   PTCLDY    61  54  76 S7        29.85R
$$

WIZ011>013-019>022-031-037>040-048>050-240500-
NORTHEAST WISCONSIN

CITY           SKY/WX    TMP DP  RH WIND       PRES   REMARKS
ANTIGO         CLEAR     61  47  59 CALM      29.87S
SHAWANO        PTCLDY    68  47  48 S6        29.86S
OCONTO         CLOUDY    63  48  57 S3        29.86S
STURGEON BAY   NOT AVBL
GREEN BAY      CLOUDY    66  42  41 S6        29.88R
MANITOWOC      PTCLDY    61  39  44 S9        29.90S
APPLETON       PTCLDY    66  45  45 S8        29.86S
CLINTONVILLE   PTCLDY    63  48  59 SE6       29.86S
OSHKOSH        MOCLDY    64  47  53 S9        29.87S
$$

WIZ032>034-041-042-053>061-240500-
SOUTHWEST WISCONSIN

CITY           SKY/WX    TMP DP  RH WIND       PRES   REMARKS
LA CROSSE      PTCLDY    69  58  67 S5        29.83R
SPARTA         MOCLDY    64  56  75 CALM      29.86R
VIROQUA        PTCLDY    68  54  60 S6        29.88R
BOSCOBEL       NOT AVBL
PRAIRIE DU CHI PTCLDY    72  46  38 CALM      29.86R
PLATTEVILLE    CLOUDY    67  47  47 S7        29.88S
$$

WIZ056-057-062-063-064-067-068-240500-
SOUTH CENTRAL WISCONSIN

CITY           SKY/WX    TMP DP  RH WIND       PRES   REMARKS
REEDSBURG      CLEAR     69  47  44 S7        29.86S
BARABOO/DELLS  CLEAR     68  44  41 SW6       29.87S
LONE ROCK      CLEAR     65  49  56 CALM      29.88R
MINERAL POINT  CLEAR     68  43  40 S6        29.89S
MADISON        PTCLDY    71  47  42 S7        29.88R
MIDDLETON      CLEAR     66  46  47 CALM      29.89S
WATERTOWN      CLEAR     65  46  50 SE6       29.89S
MONROE         PTCLDY    64  45  48 S9        29.90S
JANESVILLE     CLEAR     64  46  52 CALM      29.90R
$$

WIZ051-052-058>065-066-070>072-240500-
SOUTHEAST WISCONSIN

CITY           SKY/WX    TMP DP  RH WIND       PRES   REMARKS
MILWAUKEE      CLOUDY    64  37  36 S6        29.92R
WAUKESHA       CLOUDY    63  36  36 S5        29.93S
MILWAUKEE/TIMM PTCLDY    64  32  29 S8        29.92S
RACINE         CLOUDY    63  39  41 S9        29.94R
BURLINGTON     CLOUDY    59  43  55 CALM      29.92S
KENOSHA        CLOUDY    62  40  44 S7        29.93R
FOND DU LAC    CLOUDY    66  44  45 S9        29.89R
SHEBOYGAN      CLOUDY    58  39  49 S5        29.90S
WEST BEND      CLOUDY    63  34  34 S3        29.91S
JUNEAU         CLOUDY    64  46  53 SE8       29.90S
$$

LSZ147-162-240500-
LAKE SUPERIOR

STATION/POSITION TIME  TEMP    WIND        PRES    WAVE
                       AIR SEA DIR/SP/G            HT/PER
                 (UTC) (F)     (DEG/KT/KT) (MB)    (FT/S)
W MID LAKE BUOY  0350   50 38  220/  6/  8 1009.0F   1/ 3
DEVILS ISLAND    0400   62     270/  6/  8 1008.7R
PORT WING        0320          240/  4/ 12 1009.5R
SAXON HARBOR     0340   65     170/  6/ 12 1008.5F
$$

LMZ867-665-643>646-240500-
LAKE MICHIGAN

STATION/POSITION TIME  TEMP    WIND        PRES    WAVE
                       AIR SEA DIR/SP/G            HT/PER
                 (UTC) (F)     (DEG/KT/KT) (MB)    (FT/S)
CHAMBERS ISLAND  0300   63     190/  4/ 10 1011.9R
N MID LAKE BUOY  0350   48 44  190/ 10/ 10 1012.3R   2/ 4
NORTHPORT PIER   0300   63     160/  6/ 12 1011.9R
SISTER BAY       0319   65     180/ 19/ 22   N/A
ALGOMA LAKESHORE 0316          210/ 12/ 13   N/A
KEWAUNEE LAKESHO 0400   54     170/  9/ 10 1011.6F
SHEBOYGAN LAKESH 0400   62     190/ 17/ 18 1012.9S
PORT WASHINGTON  0300   58     170/  4/  6 1013.5R
S MID LAKE BUOY  0350   56 50  130/ 10/ 12 1013.4R   0
KENOSHA   LAKESH 0400   60     180/ 11/ 14 1013.2R
$$

TC  - TEMPERATURE IN CELSIUS
VSB - VISIBILITY IN STATUTE MILES
WCI - WIND CHILL INDEX
HX  - HEAT INDEX





USA.gov is the U.S. government's official web portal to all federal, state and local government web resources and services.